Other Public Products
Issued by NWS Charleston, SC

Current Version | Previous Version | Graphics & Text | Print | Product List | Glossary On
Versions: 1 2 3 4 5 6 7 8 9 10 11 12 13 14 15 16 17 18 19 20 21 22 23 24 25 26 27 28 29 30 31 32 33 34 35 36 37 38 39 40 41 42 43 44 45 46 47 48 49 50
000
FPUS82 KCHS 261312
OPUCHS

TEST...KCHS/KSAV Gateway Observations...TEST
National Weather Service Charleston SC
900 AM EDT TUE SEP 26 2017

NOTE: "fair" indicates few or no clouds below 12,000 feet with no
significant weather and/or obstructions to visibility.

SCZ050-WAZ558-NCZ071-TXZ119-213-PAZ071-DCZ001-FLZ074-172-MI076-
NYZ176-178-MAZ016-IL014-TNZ027-NJZ106-GAZ044-MD014-261400-

...Gateway Observations for Charleston International...

CITY           SKY/WX    TMP DP  RH WIND       PRES   REMARKS
Chas Airport   MOSUNNY   75  70  84 N10       29.89S
Seattle        PTCLDY    55  53  93 CALM      30.17R
Charlotte      PTSUNNY   73  68  84 N7        30.00R
Dallas DFW     MOCLDY    77  70  79 E6        29.91R
Dallas Love    CLOUDY    77  69  76 SE7       29.92R
Philladelphia  CLOUDY    70  66  87 NE8       30.05R
Wash National  PTSUNNY   72  68  87 NE9       30.03R
Baltimore      PTSUNNY   71  67  87 NE8       30.03R
Miami          LGT RAIN  77  75  93 VRB7      29.94R
Detroit        MOSUNNY   71  68  90 SW8       30.01R FOG
Newark         PTSUNNY   73  67  81 E5        30.05R
Laguardia      CLOUDY    71  68  90 NE8       30.05R
J F K          DRIZZLE   69  67  93 NE3       30.06S FOG
Boston Logan   FOG       68  68 100 W3        30.05S VSB 1/2
Ft. Lauderdale LGT RAIN  79  74  84 N3        29.95R
Chicago O`Hare PTSUNNY   72  61  68 S3        29.95S
Chicago Midway MOSUNNY   74  61  63 SW7       29.96R
Houston Bush   PTCLDY    74  72  93 NE5       29.89R
Houston Hobby  PTCLDY    79  74  84 CALM      29.88R
Nashville      MOSUNNY   69  68  96 CALM      30.02S
Atlanta        SUNNY     75  63  66 NE10      30.02R

$$

GAZ044-118-TXZ119-213-NCZ071-DCZ001-MDZ014-506-PAZ021-071-NJZ106-
NYZ176-178-MAZ106-OHZ011-021-055-MIZ076-KYZ091-ILZ014-INZ047-
MNZ060-ONZ431-261400-

...Gateway Observations for Savannah International...

CITY           SKY/WX    TMP DP  RH WIND       PRES   REMARKS
Savannah Arpt  MOSUNNY   75  68  78 NW8       29.93S
Atlanta        SUNNY     75  63  66 NE10      30.02R
Charlotte      PTSUNNY   73  68  84 N7        30.00R
Dallas DFW     MOCLDY    77  70  79 E6        29.91R
Houston Bush   PTCLDY    74  72  93 NE5       29.89R
Wash National  PTSUNNY   72  68  87 NE9       30.03R
Wash Dulles    MOSUNNY   73  66  78 N7        30.04R
Baltimore      PTSUNNY   71  67  87 NE8       30.03R
Philadelphia   CLOUDY    70  66  87 NE8       30.05R
Newark         PTSUNNY   73  67  81 E5        30.05R
Laguardia      CLOUDY    71  68  90 NE8       30.05R
J F K          DRIZZLE   69  67  93 NE3       30.06S FOG
Boston         FOG       68  68 100 W3        30.05S VSB 1/2
Pittsburg      PTSUNNY   68  64  87 CALM      30.07R
Akron          MOSUNNY   72  62  71 CALM      30.06S
Cleveland      MOSUNNY   76  63  64 SW7       30.05R
Cincinnati     SUNNY     73  67  81 CALM      30.04R
Columbus       SUNNY     65  64  97 CALM      30.04F
Detroit        MOSUNNY   71  68  90 SW8       30.01R FOG
Chicago O`Hare PTSUNNY   72  61  68 S3        29.95S
Minneapolis    CLOUDY    58  58 100 NW5       29.93R
Indianapolis   MOSUNNY   72  65  78 CALM      30.03S
Toronto Canada MOSUNNY   75  66  73 VRB2      30.01S

$$




USA.gov is the U.S. government's official web portal to all federal, state and local government web resources and services.